Location: Peebles
(55.6412°N, 3.1714°W)
Time: 22:39:12
(UTC+00:00)

deb Agena D - Pass Details

Date: 28 September 2023
Orbit: 794 x 979 km, 99.8° (Epoch: 28 November)

Event Time Altitude Azimuth Distance (km) Brightness Sun altitude
Rises 02:44:39 0° 17° (NNE) 3,697 10.6 -32.5°
Reaches altitude 10° 02:47:17 10° 10° (N) 2,743 9.6 -32.3°
Enters shadow 02:52:25 38° 315° (NW) 1,442 7.4 -31.9°
